sat.trackr.live / text

‹ back to catalog

STARLINK-32112

NORAD 60136 · 2024-120B

PAYLOAD ACTIVE UNKNOWN

§ Identity

Operator
Country
US
Launch date
2024-06-27
Launch site
AFETR
Launch vehicle
Mass (kg)
RCS (m²)

Purposes: comms

External: N2YO · Heavens-Above · Gunter

§ Orbital elements

Epoch: 2026-09-21T20:09:16.579008Z

Period
93.85 min
Inclination
53.1592°
Eccentricity
0.0001128
Mean motion
15.34411856 rev/d
Perigee alt
461.9 km
Apogee alt
463.4 km
Semi-major
6,840.8 km
B*
4.4954e-5
RAAN
125.5679°
Arg perigee
85.5970°
Mean anomaly
274.5162°
Rev number
12,653

§ Raw data

STARLINK-321121 60136U 24120B   26264.83977522  .00001143  00000+0  44954-4 0  99962 60136  53.1592 125.5679 0001128  85.5970 274.5162 15.34411856126536

JSON: /api/v1/satellites/60136 · /tle

For live sub-satellite position, see the globe view (requires WebGL).

§ Visibility from observer

Set your observer location to see the next 7 days of passes ≥ 10°. The values pass through the URL so the page stays shareable.

No JS? Fill the form by hand. The geolocation button needs JavaScript.